Weather in Vatutine

Ukraine / Cherkassi District     49°00′37″N   31°02′45″E
temp.,
°C
wind,
m/s
gust,
m/s
humid.,
%
clouds,
%
prec.,
mm/h
press.,
hPa
HPBL,
m
22 april, thu
thu2200:00+8ssw467556 0.0 101695
03:00+7ssw47795 0.0 1017111
06:00+6ssw358316 0.0 101882
09:00+11ssw47655 0.0 1018348
12:00+16ssw66465 0.0 10181839
15:00+17ssw674293 0.0 10172508
18:00+15ssw685610 0.2 1017972
21:00+11s512735 0.2 1017322
23 april, fri
fri2300:00+9s5138121 0.0 1017348
03:00+9ssw5118555 0.2 1016370
06:00+8s389397 1.4 1015261
09:00+9wnw3387100 1.8 1016587
12:00+7nnw5685100 0.2 1017674
15:00+5nnw5887100 0.7 1018604
18:00+7wsw1277100 0.1 1018483
21:00+5ssw348746 0.2 101878
24 april, sat
sat2400:00+4wnw368322 0.1 1018104
03:00+2w49840 0.1 1018166
06:00+1w38860 0.0 1018166
09:00+5w8107383 0.1 10181095
12:00+7wnw91143100 0.2 10192583
15:00+8wnw91138100 0.2 10192712
18:00+8wnw610515 0.0 10202335
21:00+4w35622 0.0 102271
25 april, sun
sun2500:00+2w36701 0.0 1022100
03:00+1wsw37741 0.0 1022125
06:00+1wsw35785 0.0 102188
09:00+7sw586087 0.0 1021680
12:00+10wsw6947100 0.0 10192021
15:00+8w6776100 0.5 10191067
18:00+9nw3671100 1.0 1018654
21:00+5nnw368776 1.1 1019122
26 april, mon
mon2600:00+3nw2485100 0.0 102095
03:00+1nw36870 0.0 1020123
06:000wnw37860 0.0 1020147
09:00+5w47622 0.0 1019791
12:00+8w7944100 0.2 10182393
15:00+9wnw91143100 0.4 10182464
18:00+8wnw6114711 0.0 10182485
21:00+3nw3562100 0.0 101987